Weather History for Northeast Philadelphia, PA

Change the Weather History Date:

Saturday, November 9, 2013

  Actual Average Record
Temperature  
Mean Temperature 43 °F -  
Max Temperature 51 °F 53 °F 70 °F (2006)
Min Temperature 35 °F 36 °F 28 °F (2003)
Degree Days  
Heating Degree Days 22    
Moisture  
Dew Point 28 °F    
Average Humidity 55    
Maximum Humidity 71    
Minimum Humidity 36    
Precipitation  
Precipitation 0.00 in - - ()
Sea Level Pressure  
Sea Level Pressure 30.23 in    
Wind  
Wind Speed 6 mph (WSW)    
Max Wind Speed 10 mph    
Max Gust Speed 17 mph    
Visibility 10 miles    
Events      
Averages and records for this station are not official NWS values.
T = Trace of Precipitation, MM = Missing Value Source: NWS Daily Summary

Daily Weather History Graph

Daily Weather History Graph

Search for Another Location

Airport:

Trip Planner

Search our weather history database for the weather conditions in past years. The results will help you decide how hot, cold, wet, or windy it might be!

Date:

Astronomy

Nov. 09, 2013 Rise Set
Actual Time 6:38 AM EST 4:48 PM EST
Civil Twilight 6:10 AM EST 5:17 PM EST
Nautical Twilight 5:37 AM EST 5:49 PM EST
Astronomical Twilight 5:05 AM EST 6:21 PM EST
Moon 12:13 PM EST (11/9) 11:16 PM EST (11/9)
Length of Visible Light 11h 07m
Length of Day
10h 09m
Waxing Crescent, 44% of the Moon is Illuminated
Nov 9
Waxing Crescent
Nov 10
First Quarter
Nov 17
Full
Nov 25
Last Quarter
Dec 2
New

Hourly Weather History & Observations

Time (EST) Temp. Windchill Dew Point Humidity Pressure Visibility Wind Dir Wind Speed Gust Speed Precip Events Conditions
12:54 AM 37.9 °F 32.7 °F 26.1 °F 62% 30.29 in 10.0 mi West 6.9 mph - N/A   Clear
1:54 AM 37.0 °F 31.6 °F 26.1 °F 65% 30.30 in 10.0 mi West 6.9 mph - N/A   Clear
2:54 AM 36.0 °F 31.1 °F 26.1 °F 67% 30.31 in 10.0 mi WSW 5.8 mph - N/A   Clear
3:54 AM 36.0 °F 32.1 °F 26.1 °F 67% 30.31 in 10.0 mi West 4.6 mph - N/A   Clear
4:54 AM 35.1 °F 31.0 °F 26.1 °F 70% 30.33 in 10.0 mi West 4.6 mph - N/A   Clear
5:54 AM 35.1 °F 31.0 °F 26.1 °F 70% 30.33 in 10.0 mi West 4.6 mph - N/A   Clear
6:54 AM 36.0 °F - 26.1 °F 67% 30.33 in 10.0 mi Calm Calm - N/A   Clear
7:54 AM 41.0 °F 37.1 °F 28.0 °F 60% 30.33 in 10.0 mi West 5.8 mph - N/A   Clear
8:54 AM 45.0 °F 41.2 °F 28.0 °F 52% 30.34 in 10.0 mi WNW 6.9 mph - N/A   Clear
9:54 AM 48.0 °F - 28.0 °F 46% 30.33 in 10.0 mi West 6.9 mph - N/A   Clear
10:54 AM 48.0 °F - 26.1 °F 42% 30.30 in 10.0 mi SW 6.9 mph - N/A   Clear
11:54 AM 50.0 °F - 25.0 °F 38% 30.27 in 10.0 mi West 10.4 mph 16.1 mph N/A   Clear
12:54 PM 50.0 °F - 25.0 °F 38% 30.24 in 10.0 mi Variable 5.8 mph - N/A   Clear
1:54 PM 51.1 °F - 25.0 °F 36% 30.21 in 10.0 mi WSW 10.4 mph 16.1 mph N/A   Clear
2:54 PM 51.1 °F - 26.1 °F 38% 30.18 in 10.0 mi SSW 10.4 mph 17.3 mph N/A   Clear
3:54 PM 51.1 °F - 27.0 °F 39% 30.16 in 10.0 mi SSW 9.2 mph - N/A   Clear
4:54 PM 50.0 °F - 28.0 °F 43% 30.15 in 10.0 mi SSW 4.6 mph - N/A   Clear
5:54 PM 50.0 °F - 28.9 °F 44% 30.15 in 10.0 mi SSW 6.9 mph - N/A   Clear
6:54 PM 48.0 °F - 30.9 °F 52% 30.14 in 10.0 mi SSW 9.2 mph - N/A   Clear
7:54 PM 46.9 °F - 30.9 °F 54% 30.12 in 10.0 mi SSW 6.9 mph - N/A   Clear
8:54 PM 46.0 °F - 33.1 °F 61% 30.11 in 10.0 mi Calm Calm - N/A   Clear
9:54 PM 45.0 °F - 33.1 °F 63% 30.09 in 10.0 mi Calm Calm - N/A   Clear
10:54 PM 44.1 °F - 34.0 °F 68% 30.05 in 10.0 mi Calm Calm - N/A   Clear
11:54 PM 44.1 °F 42.5 °F 35.1 °F 71% 30.03 in 10.0 mi SW 3.5 mph - N/A   Clear